Regional Weather Roundup
Issued by NWS

Home | Current Version | Previous Version | Graphics & Text | Print | Product List | Glossary On
Versions: 1 2 3 4 5 6 7 8 9 10 11 12 13 14 15 16 17 18 19 20 21 22 23 24 25 26 27 28 29 30 31 32 33 34 35 36 37 38 39 40 41 42 43 44 45 46 47 48 49 50
000
ASUS43 KMPX 210810
RWRMN
WEATHER ROUNDUP FOR MINNESOTA
NATIONAL WEATHER SERVICE TWIN CITIES/CHANHASSEN MN
300 AM CDT SUN SEP 21 2014


NOTE: "FAIR" INDICATES FEW OR NO CLOUDS BELOW 12,000 FEET WITH NO
SIGNIFICANT WEATHER AND/OR OBSTRUCTIONS TO VISIBILITY. N/A MEANS
CURRENT SKY AND/OR WEATHER CONDITIONS ARE NOT AVAILABLE.

MNZ060>063-068>070-210900-
   Twin Cities Metro

CITY           SKY/WX    TMP DP  RH WIND       PRES   REMARKS
TWIN CITIES    PTCLDY    55  48  77 NW17      29.88R
ST PAUL        CLEAR     55  48  77 NW18G28   29.87R
CRYSTAL        CLEAR     55  47  74 NW13      29.88R
BLAINE         CLEAR     55  50  82 NW17      29.88R
LAKEVILLE      CLEAR     54  48  82 W13G18    29.88R
EDEN PRAIRIE   PTCLDY    56  50  80 NW15      29.88R
SOUTH ST PAUL  CLEAR     56  48  72 NW13G20   29.87R
LAKE ELMO      FAIR      54  46  76 NW10G20   29.87R
$$
MNZ001>005-007-008-013>017-022>024-027-028-210900-
   Northwest Minnesota

CITY           SKY/WX    TMP DP  RH WIND       PRES   REMARKS
BEMIDJI        CLOUDY    49  47  95 NW8       29.97R
HALLOCK        CLEAR     50  48  93 NW7       30.01R
ROSEAU         DRIZZLE   52  46  82 NW8       29.98R
WARROAD        RAIN      52  46  82 CALM      29.98R
THIEF RVR FALL CLOUDY    52  48  87 NW9       30.00R
CROOKSTON      CLEAR     48  46  93 NW8       30.03R
FOSSTON        CLOUDY    48  48 100 NW8       30.00R FOG
DETROIT LAKES  CLOUDY    52  50  93 NW9       30.01R
MOORHEAD       CLEAR     52  52 100 NW7       30.03R
PARK RAPIDS    MOCLDY    50  47  89 N10       29.97R
MAHNOMEN       CLOUDY    51  50  98 NW10      30.00R
$$
MNZ006-009>011-018-025>026-210900-
   North Central Minnesota

CITY           SKY/WX    TMP DP  RH WIND       PRES   REMARKS
BAUDETTE       CLOUDY    50  48  93 W5        29.95R
FLAG ISLAND    CLOUDY    52  50  93 NW9       29.95R
INTL FALLS     CLOUDY    48  47  96 NW9       29.93R
WASKISH        CLOUDY    50  48  93 NW7       29.96S
BIG FORK       CLOUDY    48  46  93 NW7       29.93R
LONGVILLE      DRIZZLE   50  48  93 NW7       29.93R
GRAND RAPIDS   CLOUDY    50  46  87 NW12G21   29.90R
CRANE LAKE     CLOUDY    52  50  93 NW8       29.90R
ORR            CLOUDY    52  48  87 NW6       29.87R
COOK           DRIZZLE   52  50  93 NW3       29.88R
WALKER         FAIR      48  46  93 NW5       29.96R
$$
MNZ012-019>021-037-210900-
   Northeast Minnesota

CITY           SKY/WX    TMP DP  RH WIND       PRES   REMARKS
DULUTH         LGT RAIN  53  49  86 N10G21    29.82R
ELY            CLOUDY    50  48  93 N5        29.84R
HIBBING        LGT RAIN  52  49  89 NW13      29.87R
EVELETH        CLOUDY    52  50  93 N8        29.86R
DULUTH HARBOR  CLOUDY    54  52  94 N17G23    29.80R
TWO HARBORS    LGT RAIN  52  46  82 NE9       29.80R
SILVER BAY     RAIN      48  48 100 NE3       29.79R
GRAND MARAIS     N/A     53  47  79 E7        29.79R
G MARAIS ARPRT CLOUDY    46  43  87 N8        29.80R
$$
MNZ029>031-032-039>041-046>048-054>057-064-210900-
   West Central Minnesota

CITY           SKY/WX    TMP DP  RH WIND       PRES   REMARKS
FERGUS FALLS   CLEAR     48  48 100 NW9       30.02R
WHEATON        MOCLDY    52  46  82 NW9       30.04S
MORRIS         PTCLDY    52  48  87 NW9       30.00R
ALEXANDRIA     PTCLDY    52  49  89 NW13G22   29.99R
ELBOW LAKE     CLOUDY    53  49  87 NW10G17   30.00R
WADENA         PTCLDY    50  48  93 NW8       29.96S
GLENWOOD       CLEAR     52  48  87 NW12      29.98R
APPLETON       CLEAR     54  48  82 NW8       30.00S
BENSON         CLEAR     52  48  87 N9        29.99R
ORTONVILLE     CLEAR     55  46  71 NW9       30.02R
MADISON        CLEAR     54  46  76 NW7       30.03R
WILLMAR        FAIR      54  48  82 NW10      29.98S
$$
MNZ033>034-036-042>043-049>051-058-059-210900-
   Central Minnesota

CITY           SKY/WX    TMP DP  RH WIND       PRES   REMARKS
ST CLOUD       CLOUDY    55  48  77 NW13      29.92R
SAUK CENTRE    FAIR      52  49  89 NW10      29.96S
PAYNESVILLE    CLEAR     49  48  93 W9        29.95R
AITKIN         MIX PCPN  54  46  76 NW8       29.89R
PINE RIVER     CLOUDY    52  46  82 NW13G18   29.97S
BRAINERD       MOCLDY    50  46  86 NW13      29.93R
STAPLES        CLOUDY    48  46  93 NW9       29.96R
LONG PRAIRIE   FAIR      50  46  87 W6        29.96R
LITTLE FALLS   PTCLDY    50  45  81 NW7       29.94R
LITCHFIELD     CLEAR     55  52  88 NW13G18   29.94S
BUFFALO        CLEAR     54  49  83 W8        29.93R
MAPLE LAKE     PTCLDY    54  51  89 NW8       29.93R
$$
MNZ037-044-045-052-053-210900-
   East Central Minnesota

CITY           SKY/WX    TMP DP  RH WIND       PRES   REMARKS
PRINCETON      CLEAR     52  46  82 NW10G18   29.90R
MORA           PTCLDY    50  45  81 NW15G25   29.88R
CAMBRIDGE      PTCLDY    54  45  71 NW13G18   29.86R
RUSH CITY      CLOUDY    52  46  82 NW9G20    29.86R
MOOSE LAKE     LGT RAIN  50  48  93 NW9G20    29.83R
HINCKLEY       DRIZZLE   52  50  93 NW15      29.84S
CLOQUET        DRIZZLE   52  48  87 NW14G20   29.83R
MCGREGOR       CLOUDY    50  48  93 NW13G22   29.88R
$$
MNZ071>073-080-081-089-090-097-098-210900-
   Southwest Minnesota

CITY           SKY/WX    TMP DP  RH WIND       PRES   REMARKS
MONTEVIDEO     CLEAR     54  46  76 N8        30.01R
GRANITE FALLS  CLEAR     49  46  89 W8        30.01S
CANBY          CLEAR     56  46  69 NW10      30.04R
MARSHALL       CLEAR     55  43  62 NW12      30.00R
REDWOOD FALLS  CLEAR     54  47  77 NW12      29.98R
OLIVIA         CLEAR     54  50  87 NW9       29.96S
PIPESTONE      CLEAR     54  45  71 NW8       30.04S
WINDOM         CLEAR     55  45  67 W9        30.00R
WORTHINGTON    CLEAR     55  43  62 NW13      30.03S
JACKSON        CLEAR     57  43  58 NW14      30.00S
TRACY          CLEAR     57  45  65 NW9       30.01S
SLAYTON        CLEAR     54  44  68 W9        30.03S
$$
MNZ065>067-074>077-082>085-091>093-210900-
   South Central Minnesota

CITY           SKY/WX    TMP DP  RH WIND       PRES   REMARKS
MANKATO        CLEAR     54  46  76 NW12      29.93S
NEW ULM        CLEAR     55  50  82 NW13      29.95S
ST JAMES       CLEAR     57  46  67 W13G18    29.97S
FAIRMONT       CLEAR     57  43  58 NW10      29.97R
GLENCOE        CLEAR     55  49  80 W9        29.92R
FARIBAULT      CLEAR     57  48  72 W14       29.90R
OWATONNA       CLEAR     54  50  87 W9        29.91R
WASECA         CLEAR     50  45  81 W9        29.93S
ALBERT LEA     CLEAR     55  52  88 NW9       29.92S
$$
MNZ078>079-086>088-094>096-210900-
   Southeast Minnesota

CITY           SKY/WX    TMP DP  RH WIND       PRES   REMARKS
ROCHESTER      CLEAR     54  51  90 W10       29.87S
RED WING       PTCLDY    55  48  76 NW12G17   29.84R
STANTON        CLEAR     55  51  84 W10       29.87R
DODGE CENTER   PTCLDY    55  52  88 W15       29.87F
WINONA         PTCLDY    59  50  72 NW10      29.81R
AUSTIN         CLEAR     55  50  82 W14G20    29.89F
PRESTON        CLEAR     54  54  99 NW14      29.86F
$$
ABBREVIATIONS USED IN REMARKS
   TC - TEMPERATURES IN CELSIUS
  WCI - WIND CHILL INDEX
   HX - HEAT INDEX
  VSB - VISIBILITY
$$



USA.gov is the U.S. government's official web portal to all federal, state and local government web resources and services.